Погода в Салмане

Узбекистан     41°18′36″N   71°40′48″E
темп.,
°C
ветер,
м/с
пор.,
м/с
влажн.,
%
обл.,
%
осадки,
мм/ч
давл.,
гПа
погр.,
м
27 февраля, сб
сб2723:00−4с343861 0.0 1033246
02:00−4с2334100 0.0 1031160
05:00−4ссв1233100 0.0 103199
08:00−3с1137100 0.0 1030169
11:00−1ююз1131100 0.0 1030736
14:000ю2130100 0.1 10301260
17:000юв223399 0.1 10331282
20:00−3св224761 0.0 103632
28 февраля, вс
вс2823:00−3с455430 0.0 1035135
02:00−3с464956 0.0 1034132
05:00−3с454630 0.0 1032108
08:00−2ссв23430 0.0 1031118
11:00+3юв22340 0.0 1026571
14:00+6ю12330 0.0 1023800
17:00+6ю22380 0.0 1023402
20:00+2ссв12520 0.0 102524
1 марта, пн
пн123:00+1ссв23510 0.0 102524
02:00+1ссв223833 0.0 102423
05:000всв113767 0.0 102322
08:00+2всв1137100 0.0 102423
11:00+6ююв1126100 0.0 1022399
14:00+9ююв112313 0.0 1021707
17:00+10ююв11266 0.0 1021534
20:00+5ссз11410 0.0 102422
2 марта, вт
вт223:00+4ссв22440 0.0 102522
02:00+3ссв22430 0.0 102522
05:00+3ссв223947 0.0 102422
08:00+5с2235100 0.0 102524
11:00+9юв1123100 0.0 1023480
14:00+11юв222197 0.0 10211006
17:00+11ю222699 0.0 1021482
20:00+8св0037100 0.0 102322
3 марта, ср
ср323:00+8с2240100 0.0 102330
02:00+7с2342100 0.0 102246
05:00+6ссз3451100 0.0 102177
08:00+7с2354100 0.0 1021103
11:00+8ссв4461100 0.1 1020513
14:00+10зюз1144100 0.0 10181420
17:00+9зсз2248100 0.0 1019943
20:00+6с5574100 0.6 1021377